Location: Bosmont
(49.7318°N, 3.8587°E)
Time: 00:15:46
(UTC+00:00)

NOSS 0 Rocket - Pass Details

Date: 08 February 2023
Orbit: 934 x 955 km, 70.0° (Epoch: 21 March)

Event Time Altitude Azimuth Distance (km) Brightness Sun altitude
Rises 18:45:11 0° 188° (S) 3,610 7.1 -18.8°
Reaches altitude 10° 18:47:46 10° 183° (S) 2,671 6.3 -19.2°
Maximum altitude 18:53:41 48° 111° (ESE) 1,229 4.1 -20.1°
Enters shadow 18:56:16 31° 57° (ENE) 1,613 4.7 -20.6°
